When you browse on this site, cookies collect data to enhance your experience and personalize the content and advertising you see.
Visit our Privacy Policy to learn more. By continuing to use the site, you agree to this use of cookies and data.
  • In Hungary
  • List of Countries
  • For 7 days
  • Water Temperature
  • Weather Map
  • News
  • Weather Widgets
  • user-avatar
    Login

    Hourly Weather Novaya Blagoveschenka

    Today, 29 January, Wednesday

    Time Temperature Precipitation Wind Pressure Humidity
    00:00 -1°C° 0 mm 3 mps 736 mmHg 90%
    01:00 -2°C° 0 mm 3 mps 736 mmHg 90%
    02:00 -2°C° 0 mm 2 mps 736 mmHg 92%
    03:00 -2°C° 0 mm 3 mps 736 mmHg 93%
    04:00 -2°C° 0 mm 3 mps 735 mmHg 94%
    05:00 -2°C° 0 mm 3 mps 735 mmHg 95%
    06:00 -2°C° 0 mm 3 mps 735 mmHg 93%
    07:00 -2°C° 0 mm 3 mps 735 mmHg 92%
    08:00 -2°C° 0 mm 3 mps 735 mmHg 90%
    09:00 -3°C° 0 mm 4 mps 735 mmHg 87%
    10:00 -2°C° 0 mm 4 mps 734 mmHg 85%
    11:00 -2°C° 0 mm 4 mps 734 mmHg 82%
    12:00 -2°C° 0 mm 4 mps 734 mmHg 86%
    13:00 -1°C° 0 mm 4 mps 734 mmHg 90%
    14:00 -1°C° 0 mm 4 mps 733 mmHg 93%
    15:00 -1°C° 0 mm 4 mps 733 mmHg 94%
    16:00 -1°C° 0 mm 4 mps 732 mmHg 95%
    17:00 -1°C° 0 mm 4 mps 732 mmHg 96%
    18:00 -1°C° 0 mm 4 mps 732 mmHg 96%
    19:00 -1°C° 0 mm 4 mps 732 mmHg 96%
    20:00 -1°C° 0 mm 4 mps 731 mmHg 96%
    21:00 -1°C° 0.1 mm 4 mps 731 mmHg 96%
    22:00 -1°C° 0.1 mm 4 mps 730 mmHg 96%
    23:00 -1°C° 0.1 mm 4 mps 730 mmHg 97%

    Tomorrow, 30 January, Thursday

    Time Temperature Precipitation Wind Pressure Humidity
    00:00 -1°C° 0.1 mm 4 mps 729 mmHg 97%
    01:00 -1°C° 0.1 mm 5 mps 729 mmHg 96%
    02:00 -1°C° 0.1 mm 5 mps 728 mmHg 96%
    03:00 -1°C° 0.2 mm 5 mps 727 mmHg 96%
    04:00 -1°C° 0.2 mm 5 mps 727 mmHg 96%
    05:00 -2°C° 0.2 mm 6 mps 726 mmHg 96%
    06:00 -2°C° 0.7 mm 6 mps 726 mmHg 96%
    07:00 -2°C° 0.7 mm 6 mps 726 mmHg 96%
    08:00 -2°C° 0.7 mm 6 mps 725 mmHg 97%
    09:00 -1°C° 0.3 mm 5 mps 725 mmHg 94%
    10:00 -1°C° 0.3 mm 5 mps 725 mmHg 92%
    11:00 -2°C° 0.3 mm 5 mps 724 mmHg 90%
    12:00 -2°C° 0.1 mm 4 mps 724 mmHg 89%
    13:00 -1°C° 0.1 mm 4 mps 725 mmHg 87%
    14:00 -1°C° 0.1 mm 4 mps 725 mmHg 86%
    15:00 -2°C° 0.1 mm 4 mps 725 mmHg 88%
    16:00 -2°C° 0.1 mm 4 mps 725 mmHg 91%
    17:00 -2°C° 0.1 mm 4 mps 725 mmHg 93%
    18:00 -2°C° 0 mm 4 mps 725 mmHg 92%
    19:00 -2°C° 0 mm 4 mps 726 mmHg 91%
    20:00 -1°C° 0 mm 3 mps 726 mmHg 89%
    21:00 -1°C° 0 mm 3 mps 727 mmHg 89%
    22:00 -2°C° 0 mm 3 mps 727 mmHg 88%
    23:00 -2°C° 0 mm 3 mps 727 mmHg 88%

    Day after tomorrow, 31 January, Friday

    Time Temperature Precipitation Wind Pressure Humidity
    00:00 -2°C° 0 mm 3 mps 728 mmHg 87%
    01:00 -2°C° 0 mm 3 mps 728 mmHg 86%
    02:00 -2°C° 0 mm 3 mps 729 mmHg 86%
    03:00 -2°C° 0 mm 3 mps 729 mmHg 86%
    04:00 -2°C° 0 mm 2 mps 729 mmHg 87%
    05:00 -2°C° 0 mm 2 mps 729 mmHg 88%
    06:00 -2°C° 0.1 mm 2 mps 729 mmHg 90%
    07:00 -2°C° 0.1 mm 2 mps 730 mmHg 92%
    08:00 -2°C° 0.1 mm 2 mps 730 mmHg 94%
    09:00 -2°C° 0.1 mm 2 mps 730 mmHg 93%
    10:00 -2°C° 0.1 mm 2 mps 730 mmHg 93%
    11:00 -1°C° 0.1 mm 3 mps 730 mmHg 92%
    12:00 -1°C° 0.1 mm 3 mps 731 mmHg 92%
    13:00 -1°C° 0.1 mm 3 mps 731 mmHg 91%
    14:00 -1°C° 0.1 mm 3 mps 731 mmHg 90%
    15:00 -1°C° 0 mm 3 mps 731 mmHg 90%
    16:00 -1°C° 0 mm 2 mps 731 mmHg 89%
    17:00 -1°C° 0 mm 2 mps 731 mmHg 89%
    18:00 -1°C° 0 mm 2 mps 732 mmHg 89%
    19:00 0°C° 0 mm 1 mps 732 mmHg 89%
    20:00 0°C° 0 mm 1 mps 733 mmHg 90%
    21:00 0°C° 0 mm 1 mps 733 mmHg 88%
    22:00 0°C° 0 mm 1 mps 733 mmHg 87%
    23:00 -1°C° 0 mm 0 mps 733 mmHg 86%

    1 February, Saturday

    Time Temperature Precipitation Wind Pressure Humidity
    00:00 -1°C° 0 mm 0 mps 733 mmHg 85%
    01:00 -1°C° 0 mm 0 mps 734 mmHg 83%
    02:00 -1°C° 0 mm 0 mps 734 mmHg 82%
    03:00 -1°C° 0 mm 0 mps 734 mmHg 82%
    04:00 0°C° 0 mm 1 mps 735 mmHg 82%
    05:00 0°C° 0 mm 1 mps 735 mmHg 82%
    06:00 -1°C° 0 mm 0 mps 735 mmHg 82%
    07:00 -1°C° 0 mm 0 mps 735 mmHg 83%
    08:00 -1°C° 0 mm 0 mps 736 mmHg 83%
    09:00 -1°C° 0 mm 0 mps 736 mmHg 81%
    10:00 +1°C° 0 mm 1 mps 736 mmHg 78%
    11:00 +1°C° 0 mm 1 mps 737 mmHg 76%
    12:00 +1°C° 0 mm 1 mps 737 mmHg 76%
    13:00 +1°C° 0 mm 1 mps 737 mmHg 76%
    14:00 +2°C° 0 mm 1 mps 737 mmHg 76%
    15:00 -1°C° 0 mm 2 mps 737 mmHg 79%
    16:00 -1°C° 0 mm 2 mps 737 mmHg 82%
    17:00 -2°C° 0 mm 2 mps 737 mmHg 86%
    18:00 -2°C° 0 mm 2 mps 737 mmHg 87%
    19:00 -2°C° 0 mm 2 mps 737 mmHg 88%
    20:00 -2°C° 0 mm 3 mps 737 mmHg 89%
    21:00 -1°C° 0 mm 3 mps 737 mmHg 90%
    22:00 -2°C° 0 mm 4 mps 737 mmHg 91%
    23:00 -2°C° 0 mm 4 mps 736 mmHg 91%

    2 February, Sunday

    Time Temperature Precipitation Wind Pressure Humidity
    00:00 -2°C° 0 mm 4 mps 736 mmHg 92%
    01:00 -2°C° 0 mm 4 mps 736 mmHg 93%
    02:00 -2°C° 0 mm 4 mps 736 mmHg 94%
    03:00 -2°C° 0.1 mm 4 mps 735 mmHg 95%
    04:00 -2°C° 0.1 mm 5 mps 735 mmHg 95%
    05:00 -1°C° 0.1 mm 5 mps 734 mmHg 95%
    06:00 -1°C° 0 mm 5 mps 734 mmHg 95%
    07:00 -1°C° 0 mm 5 mps 733 mmHg 95%
    08:00 0°C° 0 mm 5 mps 733 mmHg 96%
    09:00 0°C° 0.1 mm 5 mps 733 mmHg 96%
    10:00 -1°C° 0.1 mm 6 mps 732 mmHg 95%
    11:00 +1°C° 0.1 mm 6 mps 732 mmHg 95%
    12:00 +1°C° 0.6 mm 6 mps 731 mmHg 95%
    13:00 +1°C° 0.6 mm 5 mps 731 mmHg 96%
    14:00 +1°C° 0.6 mm 5 mps 730 mmHg 96%
    15:00 +1°C° 1.2 mm 5 mps 730 mmHg 96%
    16:00 +1°C° 1.2 mm 4 mps 730 mmHg 96%
    17:00 +1°C° 1.2 mm 4 mps 730 mmHg 97%
    18:00 +1°C° 0.3 mm 4 mps 730 mmHg 95%
    19:00 0°C° 0.3 mm 4 mps 731 mmHg 94%
    20:00 0°C° 0.3 mm 4 mps 731 mmHg 92%
    21:00 0°C° 0 mm 4 mps 731 mmHg 93%
    22:00 0°C° 0 mm 4 mps 731 mmHg 93%
    23:00 0°C° 0 mm 4 mps 732 mmHg 94%

    3 February, Monday

    Time Temperature Precipitation Wind Pressure Humidity
    00:00 0°C° 0 mm 4 mps 731 mmHg 95%
    01:00 +1°C° 0 mm 3 mps 731 mmHg 95%
    02:00 +1°C° 0 mm 3 mps 731 mmHg 96%
    03:00 0°C° 0.2 mm 4 mps 731 mmHg 96%
    04:00 0°C° 0.2 mm 4 mps 731 mmHg 97%
    05:00 0°C° 0.2 mm 4 mps 730 mmHg 97%
    06:00 0°C° 0.2 mm 4 mps 730 mmHg 97%
    07:00 0°C° 0.2 mm 4 mps 730 mmHg 97%
    08:00 0°C° 0.2 mm 4 mps 730 mmHg 97%
    09:00 0°C° 0.2 mm 4 mps 730 mmHg 97%
    10:00 0°C° 0.2 mm 4 mps 731 mmHg 97%
    11:00 0°C° 0.2 mm 4 mps 731 mmHg 97%
    12:00 0°C° 0.1 mm 4 mps 731 mmHg 93%
    13:00 0°C° 0.1 mm 4 mps 732 mmHg 88%
    14:00 0°C° 0.1 mm 4 mps 732 mmHg 84%
    15:00 -1°C° 0 mm 4 mps 732 mmHg 85%
    16:00 -2°C° 0 mm 4 mps 733 mmHg 86%
    17:00 -3°C° 0 mm 4 mps 733 mmHg 87%
    18:00 -3°C° 0 mm 4 mps 733 mmHg 87%
    19:00 -2°C° 0 mm 3 mps 734 mmHg 88%
    20:00 -2°C° 0 mm 3 mps 734 mmHg 88%
    21:00 -2°C° 0 mm 3 mps 734 mmHg 89%
    22:00 -2°C° 0 mm 3 mps 734 mmHg 91%
    23:00 -2°C° 0 mm 3 mps 735 mmHg 92%
    Show more